AirNav   Air Wisconsin pilot careers
 
 366 users online  

CYPT Pelee Island Airport
Pelee Island, Ontario, Canada

GOING TO PELEE ISLAND?


FAA INFORMATION EFFECTIVE 06 DECEMBER 2018

The information below comes from the U.S. Federal Avaition Administration (FAA). The FAA is not the official source of data for facilities located outside the United States, and THESE RECORDS ARE LIKELY NOT COMPLETE OR CORRECT.

Location

FAA Identifier: CYPT
Lat/Long: 41-46-42.0000N / 082-40-41.0000W
41-46.700000N / 082-40.683333W
41.7783333 / -82.6780556
(estimated)
Elevation: 571 ft. / 174 m (estimated)
Variation: 07W ()
Time zone: UTC -5 (UTC -4 during Daylight Saving Time)
Zip code: 43440

Airport Operations

Airport use: Open to the public
Activation date: 03/2005
Control tower: no
ARTCC: TORONTO CENTER
FSS: LONDON FIC FLIGHT SERVICE STATION
Attendance: 
Segmented circle: no

Airport Communications

WX AWOS-3 at PCW (18 nm SW): 118.775 (419-734-9955)

Nearby radio navigation aids

VOR radial/distance  VOR name  Freq  Var
YQGr173/29.1WINDSOR VOR/DME113.8006W
DJBr322/34.2DRYER VOR/DME113.6005W
CRLr118/38.4CARLETON VOR/DME115.7003W

 
NDB name  Hdg/Dist  Freq  Var  ID
PORT CLINTON036/17.842307WPCW .--. -.-. .--
GROSSE ILE139/28.741907WRYS .-. -.-- ...

Airport Services

Runway Information

Runway 9/27

Dimensions: 3300 x 75 ft. / 1006 x 23 m
Surface: asphalt
RUNWAY 9  RUNWAY 27
Traffic pattern: leftleft

Runway 18/36

Dimensions: 1500 x 20 ft. / 457 x 6 m
Surface: gravel
RUNWAY 18  RUNWAY 36
Traffic pattern: leftleft

Airport Ownership and Management from official FAA records

Ownership: Publicly-owned

Instrument Procedures

There are no published instrument procedures at CYPT.

Some nearby airports with instrument procedures:

KPCW - Erie-Ottawa International Airport (18 nm SW)
KONZ - Grosse Ile Municipal Airport (29 nm NW)
5A1 - Norwalk-Huron County Airport (33 nm S)
S24 - Sandusky County Regional Airport (33 nm SW)
KLPR - Lorain County Regional Airport (34 nm SE)
 
Loc | Ops | Rwys | IFR | FBO | Links
Com | Nav | Svcs | Stats | Notes


 
Aerial photo
No photo
 
Airport distance calculator
Flying to Pelee Island Airport? Find the distance to fly.

From to CYPT

Sunrise and sunset
Times for 17-Dec-2018
 Local
(UTC-5)
 Zulu
(UTC)
Morning civil twilight07:2212:22
Sunrise07:5312:53
Sunset17:0022:00
Evening civil twilight17:3222:32

Current date and time
Zulu (UTC)  17-Dec-2018 10:52:26
Local (UTC-5)  17-Dec-2018 05:52:26
 
METAR
KPCW 
18nm SW 
171035Z AUTO 27011KT 10SM CLR 01/M01 A2996 RMK AO2
CXHA 
18nm NW 
171000Z AUTO 28007KT 01/M02 RMK AO1 SLP140 T00061020 52004
TAF
CYQG 
32nm NW 
170540Z 1706/1806 27010KT P6SM SKC BECMG 1708/1710 29012KT FM171400 30012G22KT P6SM BKN020 TEMPO 1714/1722 BKN025 FM172200 31010G20KT P6SM BKN020 BECMG 1800/1802 32008KT RMK FCST BASED ON AUTO OBS. NXT FCST BY 171200Z
KDTW 
40nm NW 
170835Z 1709/1812 28010KT P6SM SCT250 FM171500 33013G20KT P6SM BKN035 FM171900 33013G20KT P6SM BKN045 BKN250 FM172200 30010KT P6SM SCT045
KDET 
40nm N 
170525Z 1706/1806 28007KT P6SM SCT250 FM171500 33013G20KT P6SM BKN035 FM171900 33013G20KT P6SM BKN045 BKN250 FM172200 30010KT P6SM SCT045
NOTAMs
Click for the latest NOTAMs
NOTAMs are issued by the DoD/FAA and will open in a separate window not controlled by AirNav.

 

 
 

Would you like to see your business listed on this page?

 If your business provides an interesting product or service to pilots, flight crews, aircraft, or users of the Pelee Island Airport, you should consider listing it here.  To start the listing process, click on the button below
 
Add a business
 

Other Pages about Pelee Island Airport

Update a link
 
Copyright © AirNav, LLC. All rights reserved. Privacy Policy  Contact